TimeEST,TemperatureF,Dew PointF,Humidity,Sea Level PressureIn,VisibilityMPH,Wind Direction,Wind SpeedMPH,Gust SpeedMPH,PrecipitationIn,Events,Conditions,WindDirDegrees,DateUTC
12:17 AM,33.8,26.6,75,29.92,10.0,NW,12.7,27.6,N/A,,Scattered Clouds,310,2012-11-04 04:17:00
12:46 AM,33.8,26.6,75,29.92,10.0,NW,13.8,23.0,N/A,,Mostly Cloudy,310,2012-11-04 04:46:00
12:53 AM,33.1,26.1,75,29.97,10.0,WNW,16.1,21.9,N/A,,Mostly Cloudy,300,2012-11-04 04:53:00
1:53 AM,33.1,26.1,75,29.97,10.0,NW,16.1,23.0,N/A,,Overcast,310,2012-11-04 05:53:00
1:53 AM,33.1,27.0,78,29.97,10.0,NW,12.7,24.2,N/A,,Overcast,320,2012-11-04 06:53:00
2:16 AM,33.8,26.6,75,29.92,10.0,NW,16.1,25.3,N/A,,Overcast,320,2012-11-04 07:16:00
2:53 AM,33.1,27.0,78,29.97,10.0,NW,16.1,21.9,N/A,,Overcast,310,2012-11-04 07:53:00
3:53 AM,32.0,27.0,82,29.97,10.0,NW,15.0,27.6,N/A,,Overcast,320,2012-11-04 08:53:00
4:53 AM,32.0,27.0,82,29.98,-9999.0,NW,13.8,21.9,N/A,,Overcast,310,2012-11-04 09:53:00
5:53 AM,32.0,27.0,82,29.98,10.0,NW,11.5,23.0,N/A,,Overcast,310,2012-11-04 10:53:00
6:53 AM,32.0,27.0,82,29.99,10.0,NW,17.3,25.3,N/A,,Overcast,320,2012-11-04 11:53:00
7:53 AM,32.0,28.0,85,30.01,10.0,NW,18.4,25.3,N/A,,Overcast,320,2012-11-04 12:53:00
8:53 AM,34.0,28.0,79,30.01,10.0,NNW,15.0,24.2,N/A,,Mostly Cloudy,330,2012-11-04 13:53:00
9:53 AM,36.0,28.0,73,30.00,10.0,NW,12.7,25.3,N/A,,Mostly Cloudy,320,2012-11-04 14:53:00
10:06 AM,35.6,28.4,75,29.95,10.0,NNW,15.0,23.0,N/A,,Mostly Cloudy,330,2012-11-04 15:06:00
10:53 AM,37.0,28.0,70,30.00,10.0,NW,13.8,23.0,N/A,,Overcast,320,2012-11-04 15:53:00
11:53 AM,36.0,28.0,73,29.99,10.0,NW,13.8,19.6,N/A,,Overcast,320,2012-11-04 16:53:00
12:53 PM,36.0,28.0,73,29.98,10.0,NW,12.7,19.6,0.00,,Overcast,320,2012-11-04 17:53:00
1:53 PM,36.0,28.0,73,29.98,10.0,NW,11.5,16.1,0.00,,Overcast,310,2012-11-04 18:53:00
2:53 PM,36.0,26.1,67,29.99,10.0,NNW,10.4,20.7,N/A,,Overcast,330,2012-11-04 19:53:00
3:53 PM,35.1,26.1,70,29.99,10.0,NNW,10.4,18.4,N/A,,Overcast,330,2012-11-04 20:53:00
4:53 PM,34.0,26.1,73,29.99,10.0,NNW,12.7,-,N/A,,Overcast,340,2012-11-04 21:53:00
5:53 PM,34.0,26.1,73,30.01,10.0,NW,13.8,20.7,N/A,,Overcast,320,2012-11-04 22:53:00
6:53 PM,34.0,26.1,73,30.01,10.0,NNW,10.4,18.4,N/A,,Overcast,330,2012-11-04 23:53:00
7:53 PM,33.1,25.0,72,30.01,10.0,NW,11.5,16.1,N/A,,Overcast,320,2012-11-05 00:53:00
8:53 PM,32.0,25.0,75,30.01,10.0,NNW,12.7,25.3,N/A,,Overcast,330,2012-11-05 01:53:00
9:53 PM,32.0,24.1,73,30.01,10.0,NNW,9.2,18.4,N/A,,Overcast,340,2012-11-05 02:53:00
10:53 PM,30.9,23.0,72,30.00,10.0,North,15.0,23.0,N/A,,Overcast,350,2012-11-05 03:53:00